Simultaneous Nadir Overpasses (SNOs) Predictions

Prediction of SNOs between GOES-15 and NPP Satellite Orbit:

Table of predicted SNOs for the next 14.0 days since TLE Epoch: 2/10/2012
Index Date Time (GOES-15) GOES-15 Lat,Lon NPP Lat,Lon Distance(km) Time Diff (sec)
1 02/10/2012 22:42:04 -0.00,-135.11 -0.89,-138.96 439.25 80
2 02/11/2012 22:20:41 -0.00,-135.14 0.17,-134.45 79.45 80
3 02/14/2012 10:23:45 -0.00,-135.21 0.02,-135.19 3.16 80
4 02/16/2012 22:29:39 0.01,-135.24 -0.14,-135.99 84.54 80
5 02/17/2012 22:08:14 0.01,-135.26 0.86,-131.46 433.14 80
6 02/19/2012 10:30:02 -0.02,-135.30 0.33,-136.73 164.18 80
7 02/20/2012 10:13:59 -0.02,-135.31 -0.72,-132.21 353.49 80
8 02/21/2012 22:35:56 0.02,-135.32 -0.45,-137.53 250.77 80
9 02/22/2012 22:14:32
